Voltar ao catálogo

DALINGHAOWAN

AtivoCiênciaSSO
NORAD 63993·PAYLOAD·🇨🇳 China
Este nome de satélite ainda não foi confirmado por fontes oficiais.

Lançado May 14, 2025 de Jiuquan Satellite Launch Center

Loading…

Próximas Passagens (próximas 24 horas)

TLE

AtualizadoSource: Space-Track

Época: Sep 14, 2026, 15:11 UTC

1 63993U 25100M   26257.63294868  .00015918  00000-0  56518-3 0  9998
2 63993  97.3587 333.7290 0005319  16.4835 343.6577 15.29107805 74568

Acompanhe DALINGHAOWAN em tempo real com AllMySat

Download on the App Store